星链-4279 (STARLINK-4279 )

导读 | 星芒AI

STARLINK-4279 是 SpaceX Starlink 项目中的一颗低轨通信卫星,属于第 21 批 Starlink 卫星发射任务(5 January 2022)的一部分。该卫星运行在约 550 公里的高度,旨在为全球用户提供高速互联网服务。Starlink 卫星采用先进推进系统和激光通信技术,以提高网络效率和减少延迟。STARLINK-4279 与其他 Starlink 卫星共同构建了一个覆盖广泛的卫星互联网网络,支持偏远地区和传统网络难以覆盖区域的通信需求。

基本信息
目录编号:
53018
目录名称:
STARLINK-4279
国际标识:
2022-076AJ
轨道中心:
EARTH
卫星名称:
星链-4279
卫星全名:
星链-4279 (STARLINK-4279 )
卫星状态:
在轨 (已飞行1217 天)
发射日期:
2022-07-07 UTC
国别 :
美国 (US)
星等 :
--
轨道信息
数据来源 国际轨道数据
星历时间: 2025-11-04T23:48:17+0800
10小时前
查看轨道信息
半长轴: 6917.892km
偏心率: 0.0001359
轨道倾角: 53.217°
近地点辐角 86.691°
升交点赤经 285.666°
平近点角 273.424°
近地点: 538.816km
远地点: 540.698km
周期: 95.438分钟
每日圈数: 15.088365
详细信息
固有亮度:
5
最大亮度:
2.5
卫星平台:
Starlink v1.5
覆盖范围:
全球
运营商:
太空探索技术公司
运营商所在国:
美国
制造商(研发单位):
太空探索技术公司
制造商所在国:
美国
使用方式:
暂无
卫星简介
星链(Starlink)计划是由太空探索技术公司(SpaceX)提出的一个巨型低轨卫星互联网星座项目,计划在2019年至2024年间在太空搭建由约1.2万颗卫星组成的“星链”网络,其中1584颗将部署在地球上空550千米处的近地轨道,并从2020年开始工作。该卫星仍在工作。
2D轨道图
3D轨道图
轨道高度分析图
轨道倾角分析图
轨道综合分析图
查看轨道综合分析图